EHI
0 1 1 1 1 2 1 0 1 2 4 6 10 12 13 14 14 15 19 21 17 13 13 18 25 33 36 35 33 30 27 25 20 14 9 8 10 12 13 13 12 13 13 13
0 0 0 0 1 2 1 1 3 5 6 7 9 12 13 12 11 13 17 20 18 15 15 18 24 29 33 33 31 29 28 25 21 14 11 11 12 13 15 15 15 15 15 14
0 0 0 0 2 3 3 3 5 6 8 9 10 12 12 12 10 11 13 16 17 15 15 19 23 24 27 29 29 27 25 23 18 14 11 12 13 14 16 17 17 17 17 15
0 0 0 0 1 2 3 3 4 6 9 11 12 12 14 14 13 9 9 11 13 13 14 19 21 20 20 23 25 23 21 19 16 14 13 12 11 13 15 17 18 19 18 16
0 0 0 0 0 1 1 1 3 6 9 11 12 14 15 15 12 9 6 7 10 12 15 18 19 17 16 19 21 20 18 18 17 17 17 13 11 11 13 15 17 17 16 15
0 0 0 0 0 0 0 0 1 5 8 9 11 12 12 12 11 8 6 6 8 11 14 16 18 18 18 20 20 19 19 20 21 21 19 16 14 14 15 15 14 13 12 13
0 0 0 0 0 0 0 0 1 4 6 6 7 8 10 10 9 7 5 4 7 10 13 15 17 19 21 21 20 18 17 20 21 20 16 15 16 17 18 16 13 11 9 9
0 0 0 0 0 0 0 0 1 2 3 2 2 5 8 9 7 5 4 3 5 8 11 12 14 16 17 17 15 14 14 15 16 15 12 12 14 16 17 17 15 12 9 8
0 0 0 0 0 0 0 0 1 1 1 0 0 2 5 7 6 4 4 5 5 6 9 10 11 11 11 10 9 9 9 9 10 10 9 9 11 13 14 15 15 13 11 10
0 0 0 0 0 0 0 0 0 0 0 0 0 1 3 5 5 5 6 6 6 7 9 9 9 8 7 6 5 6 6 6 6 6 7 8 10 11 11 12 13 14 14 13
0 0 0 0 0 0 0 0 0 0 0 1 1 2 3 5 5 6 7 9 9 9 9 9 9 7 5 4 3 4 4 5 5 5 6 6 6 6 7 9 11 13 13 14
0 0 1 1 1 1 0 0 0 0 1 2 2 2 3 4 4 6 7 9 10 11 10 10 9 7 5 4 3 3 3 4 5 5 5 3 2 2 3 5 7 8 8 9
0 1 2 2 2 1 0 0 0 0 1 1 1 1 1 2 4 6 7 6 8 11 10 8 7 5 3 3 4 4 5 5 5 4 3 2 1 1 2 2 3 3 3 2
1 1 2 2 2 1 0 0 0 0 0 0 0 0 0 1 3 6 7 5 5 9 9 7 5 3 2 2 3 4 5 6 5 4 3 2 2 2 3 2 3 3 1 0
0 1 1 1 1 0 0 0 0 0 0 0 0 0 0 1 3 6 7 4 3 5 8 7 5 3 1 1 3 3 4 5 6 5 3 2 2 3 3 3 3 3 2 1
0 0 0 0 0 0 0 0 0 0 0 0 0 0 0 0 3 6 6 4 3 4 6 6 5 3 2 2 3 3 3 4 5 5 4 3 3 3 3 3 3 3 2 2
0 0 0 0 0 0 0 0 0 0 0 0 0 0 0 1 3 4 5 6 5 4 4 3 3 2 2 3 4 3 3 3 4 4 3 3 3 3 3 3 2 2 1 1
0 0 0 0 0 0 0 0 0 0 0 0 0 0 1 2 4 4 5 6 5 2 1 1 1 2 2 2 2 3 3 3 3 2 2 2 2 2 2 1 1 1 0 0
0 0 0 0 0 0 0 0 0 0 0 0 0 1 2 4 4 5 5 4 2 0 0 0 0 1 1 1 1 2 2 2 1 1 1 1 1 1 1 0 0 0 0 0
0 0 0 0 0 0 0 0 0 0 0 0 0 1 3 4 4 4 4 2 0 0 0 0 0 0 0 0 0 1 1 1 0 0 0 0 0 0 0 0 0 0 0 0
0 0 0 0 0 0 0 0 0 0 0 0 0 1 3 3 3 3 2 0 0 0 0 0 0 0 0 0 0 0 0 0 0 0 0 0 0 0 0 0 0 0 0 0
0 0 0 0 0 0 0 0 0 0 0 0 0 1 2 1 1 1 1 0 0 0 0 0 0 0 0 0 0 0 0 0 0 0 0 0 0 0 0 0 0 0 0 0
0 0 0 0 0 0 0 0 0 0 0 0 0 1 1 0 0 0 0 0 0 0 0 0 0 0 0 0 0 0 0 0 0 0 0 0 0 0 0 0 0 0 0 0
0 0 0 0 0 0 0 0 0 0 0 0 0 0 0 0 0 0 0 0 0 0 0 0 0 0 0 0 0 0 0 0 0 0 0 0 0 0 0 0 0 0 0 0
0 0 0 0 0 0 0 0 0 0 0 0 0 0 0 0 0 0 0 0 0 0 0 0 0 0 0 0 0 0 0 0 0 0 0 0 0 0 0 0 0 0 0 0
0 0 0 0 0 0 0 0 0 0 0 0 0 0 0 0 0 0 0 0 0 0 0 0 0 0 0 0 0 0 0 0 0 0 0 0 0 0 0 0 0 0 0 0
0 0 0 0 0 0 0 0 0 0 0 0 0 0 0 0 0 0 0 0 0 0 0 0 0 0 0 0 0 0 0 0 0 0 0 0 0 0 0 0 0 0 0 0
Wind_Speed
4 3 2 3 4 3 4 7 7 8 7 8 5 3 1 0 1 2 2 3 3 3 2 3 4 4 4 4 4 4 5 5 5 4 4 4 4 5 4 4 4 4 4 4
3 2 1 3 4 4 4 4 4 4 5 5 2 1 1 1 1 2 2 2 2 2 3 4 5 5 5 4 4 4 5 5 4 4 4 5 5 4 4 4 4 4 4 4
3 3 2 4 4 3 2 2 4 6 6 2 2 2 2 2 1 1 1 1 2 2 2 3 4 5 5 4 4 4 3 3 3 3 3 3 3 3 4 3 4 4 4 4
1 1 4 7 2 2 2 1 1 2 2 3 3 1 1 1 1 1 1 1 1 1 2 2 3 4 4 4 5 5 4 3 4 4 3 3 3 3 3 3 3 3 4 5
2 2 5 5 2 1 2 2 2 2 3 3 4 4 3 2 1 1 2 2 2 2 2 2 2 3 4 4 4 4 4 4 4 4 3 3 3 4 3 3 3 3 3 4
3 2 6 6 4 2 2 2 1 2 3 3 3 1 3 2 0 1 1 1 1 1 2 1 1 3 4 3 3 3 4 4 3 3 4 4 5 4 3 3 3 3 4 4
3 3 7 5 6 2 2 6 3 3 3 3 3 4 4 2 2 2 2 2 0 1 1 2 2 3 3 2 2 3 2 2 2 2 3 4 4 3 3 3 2 2 3 3
3 3 7 4 2 2 5 3 2 2 2 1 1 1 1 2 2 1 1 1 1 2 1 1 2 3 3 1 2 1 1 1 1 2 2 2 2 2 2 2 3 3 3 3
6 6 6 4 4 4 2 2 2 1 1 1 1 1 2 3 2 2 2 2 1 2 1 0 1 3 3 3 2 1 1 1 1 1 1 1 2 2 2 2 3 3 3 4
2 5 5 4 4 3 2 2 2 2 2 2 2 2 1 1 2 2 1 1 1 2 1 1 1 1 3 3 2 2 2 2 2 1 2 2 2 2 2 3 3 3 4 4
3 5 4 4 4 3 2 2 2 1 1 1 1 1 1 1 1 1 1 0 1 2 2 2 1 2 2 2 3 3 3 3 2 2 2 2 2 2 3 4 5 5 5 4
6 6 4 5 4 3 2 2 2 1 2 1 1 2 1 2 2 1 1 1 1 2 2 2 2 2 3 2 3 3 3 3 3 3 2 2 2 3 3 5 6 7 8 7
6 4 4 4 3 3 2 3 2 1 1 2 2 2 1 2 2 1 1 1 2 2 2 3 3 3 3 3 3 4 5 4 3 3 3 3 3 3 3 3 4 5 6 7
3 1 2 3 4 3 3 3 2 2 2 2 3 2 1 1 1 2 2 2 2 2 2 2 3 4 4 3 3 4 4 5 4 4 4 4 4 4 4 4 4 3 3 5
4 3 4 3 3 2 2 1 1 2 2 3 2 2 1 2 3 3 3 3 2 2 2 2 3 4 4 3 3 4 4 4 4 4 4 4 4 4 4 4 4 3 3 2
3 2 1 2 2 2 1 1 2 3 3 3 3 3 3 3 3 3 3 2 2 3 4 4 4 5 3 2 3 3 4 6 5 4 4 4 3 4 4 4 4 3 4 3
1 2 2 2 2 3 2 2 3 3 3 3 4 3 2 2 2 3 3 3 3 4 5 5 5 4 3 3 3 3 3 4 5 4 4 4 4 4 4 4 4 4 4 4
5 5 5 5 4 3 3 3 3 3 3 3 3 2 2 3 4 5 4 3 3 4 4 4 4 4 4 3 3 3 3 3 3 3 3 3 4 4 4 4 4 4 3 3
2 2 2 3 3 3 3 3 3 3 3 2 2 3 4 4 4 4 3 3 4 5 5 4 4 4 4 4 4 3 3 3 3 3 3 3 3 3 3 4 4 4 4 3
0 1 1 1 1 1 2 2 2 2 3 2 2 3 4 4 4 3 2 3 4 4 4 4 4 3 4 4 4 3 3 3 3 3 3 3 3 3 3 4 4 4 4 4
1 1 1 0 1 1 1 1 2 3 3 2 2 3 4 4 3 2 2 3 4 3 3 4 3 3 3 3 4 3 3 3 3 3 3 3 3 3 3 3 3 3 3 3
0 0 0 0 1 2 2 2 2 2 2 2 2 2 2 3 3 2 2 2 3 4 3 2 3 3 4 4 2 2 2 2 2 2 2 2 2 2 2 2 2 2 2 3
1 1 1 1 1 2 3 3 2 1 2 2 2 2 2 2 1 1 2 2 2 4 3 2 4 5 4 2 1 1 1 1 1 1 1 2 2 2 2 1 2 2 2 2
1 1 1 1 0 1 2 3 3 2 2 2 1 1 1 1 2 1 1 3 4 4 2 3 4 4 3 1 1 1 1 1 1 1 1 1 1 1 1 1 2 2 2 3
1 1 0 0 0 1 2 3 3 2 2 2 2 2 1 1 1 2 2 2 3 4 3 3 4 4 2 2 1 1 1 1 1 1 1 1 1 1 1 2 2 2 2 2
1 1 1 2 2 2 2 1 1 2 1 2 2 2 2 1 1 1 2 2 3 3 2 2 3 3 2 2 2 1 1 1 1 1 1 1 1 2 2 2 3 2 2 2
1 1 0 1 1 1 1 1 1 1 1 1 2 2 2 2 1 1 2 2 2 2 2 2 2 2 2 2 2 2 2 2 1 1 1 1 1 1 2 2 2 2 1 1
Wind_Direction
246 250 227 243 256 222 196 192 193 223 219 242 241 219 233 300 86 85 81 92 112 132 136 131 133 141 150 154 157 155 155 173 185 191 200 228 232 225 211 210 214 209 204 209
287 276 273 273 279 245 229 207 201 194 245 244 205 110 109 122 110 99 90 92 98 116 137 150 149 150 153 154 156 155 173 189 189 190 193 206 222 223 214 209 209 204 207 209
271 306 10 270 262 220 227 238 190 212 227 180 139 164 187 162 136 153 173 134 119 134 156 165 158 157 159 156 149 161 179 182 192 193 198 212 223 223 225 217 210 211 215 214
243 30 224 243 271 176 166 306 273 199 178 150 132 125 6 99 140 198 240 157 151 163 167 175 158 152 159 154 165 171 173 187 198 192 196 200 205 222 228 220 218 217 221 224
137 199 268 285 277 175 173 300 334 143 121 109 99 58 357 340 151 196 224 214 209 191 163 165 160 150 155 164 167 175 185 201 205 196 199 202 216 228 228 219 221 219 227 225
143 169 236 253 306 320 103 276 269 148 141 126 90 85 268 276 261 271 285 259 219 121 103 139 143 131 143 154 158 191 204 211 206 198 206 216 225 225 219 212 224 225 233 232
174 212 258 276 312 342 184 237 236 210 180 160 184 214 233 243 253 251 261 267 166 117 141 187 156 129 134 147 190 212 201 187 188 199 218 219 221 217 209 211 216 229 247 256
160 196 256 309 0 192 231 262 234 221 231 192 218 256 251 238 242 257 272 254 189 161 184 193 148 138 146 192 225 190 164 182 212 212 234 238 211 220 219 215 226 238 246 264
193 218 256 278 252 261 235 237 263 233 248 166 171 284 298 295 268 246 242 224 192 163 158 192 168 162 175 214 204 159 134 197 256 267 266 246 221 227 234 227 231 244 246 254
259 269 278 289 295 300 277 244 264 233 220 182 191 230 267 277 270 264 256 202 163 146 153 228 232 205 212 214 191 169 193 225 235 244 268 266 245 233 235 237 238 241 242 247
256 273 304 304 295 295 309 336 349 328 268 199 179 235 262 294 300 288 284 281 138 157 185 227 242 241 234 214 182 186 209 225 235 236 237 255 265 250 237 239 231 230 237 235
231 235 224 263 281 286 285 293 301 326 341 307 198 227 256 277 281 276 257 231 164 188 208 231 231 247 256 240 199 194 217 227 229 232 235 240 252 286 284 256 249 236 234 234
234 244 234 252 272 269 262 277 294 291 277 287 287 241 229 264 280 277 280 258 233 225 226 232 229 239 252 250 219 214 226 233 232 230 230 237 241 248 278 293 276 257 245 239
238 229 274 271 258 255 251 264 278 293 302 280 273 272 244 246 270 278 272 259 251 251 253 248 248 260 257 243 233 240 242 243 241 236 233 234 239 243 244 250 267 279 274 249
261 228 226 263 290 294 257 227 259 285 296 298 286 270 244 233 245 258 260 255 258 272 272 264 265 272 265 245 236 245 248 248 247 245 241 238 240 246 249 248 249 256 266 263
281 286 234 240 266 284 289 239 230 249 246 249 258 253 247 242 251 262 266 263 255 273 274 269 268 268 263 250 252 257 253 248 248 241 238 236 235 237 240 242 244 247 250 251
212 257 231 234 252 267 268 253 239 240 245 249 253 257 264 271 285 280 278 277 265 265 268 266 268 271 259 247 247 257 260 256 255 248 238 234 232 231 232 237 242 245 250 244
208 215 214 210 218 242 268 269 255 247 248 252 260 270 271 264 267 270 273 280 284 287 281 271 269 275 271 264 255 254 255 255 250 244 241 238 236 235 235 238 240 242 247 238
217 208 212 213 218 216 228 246 256 258 262 258 252 258 263 266 266 270 277 281 281 287 289 286 286 285 280 272 266 250 250 255 255 244 237 235 239 239 236 237 239 238 233 228
216 173 175 225 255 206 224 252 266 276 274 266 263 275 281 279 275 277 277 274 268 267 279 290 294 285 274 269 272 252 245 246 247 246 242 233 235 243 244 244 245 240 236 229
111 115 114 103 323 308 284 273 265 273 284 285 261 269 278 285 287 274 271 292 298 304 306 298 294 290 284 283 284 266 252 245 246 246 244 240 237 242 249 251 249 243 238 234
261 95 190 74 356 329 321 310 279 277 294 297 290 299 305 305 308 310 293 269 289 312 322 314 305 301 305 301 285 278 267 251 255 258 254 245 236 239 248 255 254 245 236 230
268 261 251 256 280 306 324 325 314 305 301 299 300 304 301 296 294 295 314 313 312 324 328 322 325 330 332 333 329 324 316 284 265 257 254 253 247 240 241 248 257 254 246 238
275 277 265 280 341 349 325 314 317 315 309 306 303 296 293 322 339 330 290 313 325 329 332 327 330 339 350 11 14 15 354 312 292 287 276 265 261 249 249 249 250 251 248 248
244 251 277 120 248 259 271 299 326 339 347 344 341 341 329 274 271 311 326 325 330 336 336 336 345 350 3 12 10 2 347 327 315 307 302 296 279 268 264 262 259 256 254 250
248 239 238 235 234 247 260 275 302 306 319 331 330 334 340 335 322 320 328 330 335 334 335 341 349 358 7 9 7 352 336 332 326 320 306 291 273 263 261 263 261 255 250 245
335 316 303 308 294 264 257 245 249 277 275 264 292 311 322 331 342 344 344 341 340 340 340 338 341 346 354 1 2 358 351 345 344 341 328 310 295 278 272 270 273 266 258 257